Torna al catalogo

STARLINK-35991

AttivoComunicazioniVLEO
NORAD 66861·PAYLOAD·🇺🇸 United States

Lanciato Dec 2, 2025 da Cape Canaveral Space Force Station

Loading…

Prossimi Passaggi (prossime 24 ore)

TLE

AggiornatoSource: CelesTrak SupGP

Epoca: Sep 15, 2026, 02:58 UTC

1 66861C 25281P   26258.12409722  .00037066  00000+0  13423-2 0  2589
2 66861  43.0014 353.3554 0001425 262.0687 342.3309 15.27565293    12

Traccia STARLINK-35991 in tempo reale con AllMySat

Download on the App Store